Stations météo

Publicité
Orange, France (7579): Température de l'air & dewpoint: 03.08.2020 07:00:00 - 09.08.2020 07:00:00 (CEST)Orange, France (7579): Température de l'air 5cm: 03.08.2020 07:00:00 - 09.08.2020 07:00:00 (CEST)Orange, France (7579): Vitesse du vent & gusts: 03.08.2020 07:00:00 - 09.08.2020 07:00:00 (CEST)Orange, France (7579): Direction du vent: 03.08.2020 07:00:00 - 09.08.2020 07:00:00 (CEST)Orange, France (7579): reduced air pressure: 03.08.2020 07:00:00 - 09.08.2020 07:00:00 (CEST)Orange, France (7579): visibility: 03.08.2020 07:00:00 - 09.08.2020 07:00:00 (CEST)Orange, France (7579): Quantités de précipitations: 03.08.2020 07:00:00 - 09.08.2020 07:00:00 (CEST)
Date & Time tt [°C] td [°C] tt 5cm [°C] ff [km/h] ff [knt] fx [km/h] fx [knt] dd ppp [hPa] vv [km] rr [mm]
09.08.2020 07:00:00 - - - - - - - - - - -
09.08.2020 06:00:00 19,2 18,2 17,2 3 2 9 5 NE 1017,4 8 0,0
09.08.2020 05:00:00 20,0 19,2 17,6 7 4 10 6 WNW 1017,4 8 0,0
09.08.2020 04:00:00 20,0 19,0 17,2 5 3 8 5 WNW 1017,5 8 0,0
09.08.2020 03:00:00 19,6 17,9 17,5 5 3 8 4 NE 1017,7 16 0,0
09.08.2020 02:00:00 21,2 19,8 18,3 0 0 7 4 N 1017,8 12 0,0
09.08.2020 01:00:00 21,9 20,0 20,0 4 2 9 5 SSE 1018,0 13 0,0
09.08.2020 00:00:00 23,0 20,7 22,1 7 4 20 11 S 1017,7 14 0,0
08.08.2020 23:00:00 24,2 20,7 23,4 11 6 22 12 S 1017,0 30 0,0
08.08.2020 22:00:00 25,8 19,7 24,9 11 6 25 14 S 1016,3 49 0,0
08.08.2020 21:00:00 28,4 17,0 27,4 13 7 25 13 S 1015,5 60 0,0
08.08.2020 20:00:00 31,2 16,0 31,5 16 8 31 17 S 1014,9 55 0,0
08.08.2020 19:00:00 34,8 17,1 37,0 17 9 30 16 SSW 1014,2 20 0,0
08.08.2020 18:00:00 37,9 12,5 43,1 8 4 18 10 SSW 1014,4 44 0,0
08.08.2020 17:00:00 36,9 11,0 41,6 5 3 16 9 W 1014,9 56 0,0
08.08.2020 16:00:00 36,3 10,5 43,1 9 5 19 10 W 1015,6 20 0,0
08.08.2020 15:00:00 35,2 10,9 43,2 6 3 14 8 SSE 1016,4 60 0,0
08.08.2020 14:00:00 33,3 12,3 40,4 7 4 15 8 SSW 1017,2 8 0,0
08.08.2020 13:00:00 32,2 12,4 37,9 6 3 17 9 WSW 1018,0 18 0,0
08.08.2020 12:00:00 29,8 15,1 34,4 6 3 12 7 SE 1018,5 20 0,0
08.08.2020 11:00:00 27,8 15,8 30,4 3 2 9 5 W 1019,2 20 0,0
08.08.2020 10:00:00 24,9 16,9 26,6 3 2 11 6 NNE 1019,6 20 0,0
08.08.2020 09:00:00 22,2 15,1 21,1 6 3 11 6 NW 1019,8 42 0,0
08.08.2020 08:00:00 19,1 18,3 18,3 5 3 7 4 N 1019,9 1,2 0,0
08.08.2020 07:00:00 18,0 17,2 17,5 0 0 5 3 N 1019,5 0,3 0,0
08.08.2020 06:00:00 17,5 15,1 14,1 4 2 6 3 ENE 1019,5 16 0,0
08.08.2020 05:00:00 17,0 11,9 14,3 0 0 10 5 N 1019,5 55 0,0
08.08.2020 04:00:00 17,1 11,8 14,5 5 3 7 4 NE 1019,6 54 0,0
08.08.2020 03:00:00 17,8 13,3 15,3 4 2 6 4 NE 1020,1 46 0,0
08.08.2020 02:00:00 19,4 14,9 16,0 0 0 7 4 N 1020,3 47 0,0
08.08.2020 01:00:00 20,4 15,6 16,9 6 3 8 4 SSE 1020,0 54 0,0
08.08.2020 00:00:00 21,8 17,0 19,3 6 4 13 7 SE 1019,6 56 0,0
07.08.2020 23:00:00 23,2 14,7 20,7 7 4 13 7 SSE 1019,1 60 0,0
07.08.2020 22:00:00 24,6 14,4 22,4 10 5 14 8 SSE 1018,3 60 0,0
07.08.2020 21:00:00 26,9 13,6 25,6 9 5 25 14 S 1017,2 60 0,0
07.08.2020 20:00:00 29,7 10,8 30,7 16 8 31 17 S 1016,6 56 0,0
07.08.2020 19:00:00 31,6 8,6 34,1 19 10 32 17 SSW 1016,4 42 0,0
07.08.2020 18:00:00 34,1 10,7 38,2 17 9 31 17 S 1016,2 46 0,0
07.08.2020 17:00:00 35,1 11,5 40,6 17 9 28 15 S 1016,3 58 0,0
07.08.2020 16:00:00 35,4 11,1 41,9 8 4 16 9 S 1016,5 60 0,0
07.08.2020 15:00:00 34,3 10,8 42,9 10 6 18 10 SSE 1017,2 38 0,0
07.08.2020 14:00:00 33,7 10,3 40,2 8 4 20 11 SW 1017,6 60 0,0
07.08.2020 13:00:00 32,3 10,9 37,2 8 4 18 10 SSE 1018,0 58 0,0
07.08.2020 12:00:00 30,8 11,7 34,6 5 3 11 6 WSW 1018,4 60 0,0
07.08.2020 11:00:00 28,1 13,6 31,2 5 3 12 6 WNW 1018,6 49 0,0
07.08.2020 10:00:00 25,4 13,6 27,4 3 2 8 4 NNW 1018,8 42 0,0
07.08.2020 09:00:00 22,4 14,5 20,5 0 0 4 2 N 1019,0 47 0,0
07.08.2020 08:00:00 18,6 14,9 13,4 0 0 4 2 N 1018,9 35 0,0
07.08.2020 07:00:00 15,1 12,2 11,9 4 2 6 3 N 1018,8 26 0,0
07.08.2020 06:00:00 15,5 12,8 11,7 4 2 6 3 N 1018,5 37 0,0
07.08.2020 05:00:00 15,8 12,4 12,5 0 0 7 4 N 1018,5 39 0,0
07.08.2020 04:00:00 16,2 12,4 13,5 6 4 9 5 ENE 1018,4 42 0,0
07.08.2020 03:00:00 16,8 12,9 14,3 6 4 10 5 ENE 1018,5 39 0,0
07.08.2020 02:00:00 17,5 13,6 14,5 0 0 5 3 N 1018,5 44 0,0
07.08.2020 01:00:00 20,8 15,3 16,5 4 2 9 5 S 1018,3 47 0,0
07.08.2020 00:00:00 22,0 15,1 19,6 7 4 13 7 S 1017,8 51 0,0
06.08.2020 23:00:00 23,5 14,8 21,6 9 5 16 9 SSE 1017,4 58 0,0
06.08.2020 22:00:00 25,5 14,3 24,1 11 6 18 10 S 1016,6 59 0,0
06.08.2020 21:00:00 27,6 14,6 26,1 8 5 24 13 S 1015,7 60 0,0
06.08.2020 20:00:00 30,8 14,0 31,5 17 9 32 18 SSW 1014,8 49 0,0
06.08.2020 19:00:00 35,3 5,7 39,7 12 7 22 12 N 1014,0 53 0,0
06.08.2020 18:00:00 36,0 6,2 41,5 7 4 18 10 N 1013,9 49 0,0
06.08.2020 17:00:00 35,4 6,6 41,2 10 6 26 14 N 1013,9 41 0,0
06.08.2020 16:00:00 34,2 10,1 39,8 11 6 24 13 SSW 1014,2 39 0,0
06.08.2020 15:00:00 33,1 11,0 41,7 7 4 23 13 S 1014,9 60 0,0
06.08.2020 14:00:00 33,1 11,0 40,3 6 3 19 10 NW 1015,2 60 0,0
06.08.2020 13:00:00 31,8 11,6 39,3 5 3 33 18 NNW 1015,5 60 0,0
06.08.2020 12:00:00 30,3 10,8 36,0 10 5 23 12 N 1015,8 31 0,0
06.08.2020 11:00:00 28,8 11,8 31,8 13 7 26 14 N 1016,2 60 0,0
06.08.2020 10:00:00 25,4 11,6 26,9 15 8 22 12 N 1016,3 19 0,0
06.08.2020 09:00:00 21,5 11,2 20,6 9 5 12 7 N 1016,3 42 0,0
06.08.2020 08:00:00 18,2 11,3 11,4 0 0 6 3 N 1016,2 58 0,0
06.08.2020 07:00:00 13,5 9,3 9,8 3 2 7 4 NE 1016,0 58 0,0
06.08.2020 06:00:00 13,8 9,0 10,1 0 0 7 4 N 1015,8 60 0,0
06.08.2020 05:00:00 15,8 9,7 11,3 7 4 10 5 E 1015,5 60 0,0
06.08.2020 04:00:00 15,1 10,1 11,6 4 2 8 4 N 1015,6 60 0,0
06.08.2020 03:00:00 15,7 10,5 12,3 2 1 11 6 NE 1015,4 60 0,0
06.08.2020 02:00:00 16,9 10,5 13,4 0 0 5 3 N 1015,2 58 0,0
06.08.2020 01:00:00 18,6 10,9 14,5 0 0 7 4 N 1015,0 60 0,0
06.08.2020 00:00:00 21,7 10,5 17,9 5 3 19 10 SE 1014,7 60 0,0
05.08.2020 23:00:00 25,1 10,2 22,3 16 9 30 16 N 1014,0 60 0,0
05.08.2020 22:00:00 25,4 10,0 20,6 10 5 18 10 N 1013,6 60 0,0
05.08.2020 21:00:00 26,6 8,5 23,7 6 3 34 18 W 1012,9 60 0,0
05.08.2020 20:00:00 29,4 8,4 30,4 18 10 34 18 N 1012,3 55 0,0
05.08.2020 19:00:00 31,1 7,5 34,5 16 8 23 13 N 1012,0 53 0,0
05.08.2020 18:00:00 31,9 8,2 38,7 9 5 26 14 NW 1012,0 52 0,0
05.08.2020 17:00:00 31,4 7,8 39,0 10 5 28 15 NW 1012,1 60 0,0
05.08.2020 16:00:00 31,3 9,5 37,2 13 7 27 15 N 1012,2 20 0,0
05.08.2020 15:00:00 30,9 9,2 40,2 16 8 27 15 NNW 1012,4 19 0,0
05.08.2020 14:00:00 29,3 8,9 37,0 13 7 31 17 NW 1012,7 27 0,0
05.08.2020 13:00:00 28,3 9,6 32,8 23 12 45 24 NNW 1013,2 24 0,0
05.08.2020 12:00:00 26,8 9,6 30,6 27 15 49 27 N 1013,3 19 0,0
05.08.2020 11:00:00 25,0 9,7 27,9 29 15 54 29 N 1013,4 19 0,0
05.08.2020 10:00:00 23,5 9,5 24,0 25 14 56 30 N 1013,5 15 0,0
05.08.2020 09:00:00 21,4 9,0 20,6 37 20 63 34 N 1013,2 13 0,0
05.08.2020 08:00:00 19,5 9,4 17,5 31 17 48 26 N 1012,9 19 0,0
05.08.2020 07:00:00 18,2 9,3 17,1 28 15 46 25 N 1012,7 24 0,0
05.08.2020 06:00:00 18,6 9,4 17,4 27 14 44 24 N 1012,5 60 0,0
05.08.2020 05:00:00 19,1 9,3 17,9 26 14 40 21 N 1012,4 60 0,0
05.08.2020 04:00:00 20,1 8,7 18,8 29 15 44 24 N 1012,0 60 0,0
05.08.2020 03:00:00 20,7 9,0 19,4 29 16 47 25 N 1011,9 60 0,0
05.08.2020 02:00:00 21,2 8,8 20,0 30 16 54 29 N 1012,2 60 0,0
05.08.2020 01:00:00 21,8 9,3 20,5 30 16 51 28 N 1012,1 60 0,0
05.08.2020 00:00:00 22,0 9,2 20,9 29 16 57 31 N 1012,3 60 0,0
04.08.2020 23:00:00 23,0 9,0 21,8 36 19 67 36 N 1011,5 60 0,0
04.08.2020 22:00:00 23,1 9,1 22,0 35 19 62 34 NNW 1011,2 60 0,0
04.08.2020 21:00:00 23,8 9,4 22,9 32 18 68 37 NNW 1011,6 60 0,0
04.08.2020 20:00:00 25,2 9,1 26,3 40 22 70 38 NNW 1011,7 15 0,0
04.08.2020 19:00:00 26,0 8,5 28,4 42 23 76 41 N 1011,1 7 0,0
04.08.2020 18:00:00 26,5 9,4 29,7 45 25 80 43 N 1011,2 4,1 0,0
04.08.2020 17:00:00 26,7 9,5 30,9 49 26 89 48 N 1011,5 4,3 0,0
04.08.2020 16:00:00 26,4 9,3 30,3 52 28 82 44 N 1011,4 5 0,0
04.08.2020 15:00:00 25,6 9,0 31,1 53 29 82 44 N 1011,9 7 0,0
04.08.2020 14:00:00 24,9 9,6 29,2 52 28 85 46 NNW 1012,2 11 0,0
04.08.2020 13:00:00 24,1 10,0 28,1 47 26 78 42 N 1012,1 12 0,0
04.08.2020 12:00:00 23,9 10,6 25,7 40 21 71 39 N 1012,7 12 0,0
04.08.2020 11:00:00 22,3 9,5 24,4 48 26 76 41 N 1012,8 14 0,0
04.08.2020 10:00:00 20,9 9,8 21,7 45 24 78 42 N 1012,6 7 0,0
04.08.2020 09:00:00 19,8 9,9 19,1 44 24 66 35 NNW 1012,6 11 0,0
04.08.2020 08:00:00 18,2 9,3 16,6 32 17 45 24 NNW 1012,9 18 0,0
04.08.2020 07:00:00 17,5 8,9 15,5 26 14 46 25 NNW 1013,1 29 0,0
04.08.2020 06:00:00 17,1 9,5 15,8 27 15 41 22 NNW 1012,7 60 0,0
04.08.2020 05:00:00 17,1 10,0 15,7 20 11 34 19 N 1012,7 60 0,0
04.08.2020 04:00:00 17,4 10,0 15,8 21 11 36 20 NNW 1012,8 60 0,0
04.08.2020 03:00:00 17,4 10,3 16,2 19 10 36 19 NW 1013,1 60 0,0
04.08.2020 02:00:00 18,2 10,6 17,2 25 13 41 22 NNW 1013,2 60 0,0
04.08.2020 01:00:00 18,5 10,1 17,5 26 14 49 27 NNW 1013,3 60 0,0
04.08.2020 00:00:00 19,2 9,9 18,3 31 17 51 28 NNW 1012,9 60 0,0
03.08.2020 23:00:00 19,5 9,7 18,5 30 16 49 26 NNW 1012,8 60 0,0
03.08.2020 22:00:00 20,1 10,2 19,2 27 15 48 26 N 1012,0 60 0,0
03.08.2020 21:00:00 21,4 9,3 20,7 31 17 63 34 N 1011,5 60 0,0
03.08.2020 20:00:00 23,6 9,6 24,6 36 20 62 34 N 1010,5 20 0,0
03.08.2020 19:00:00 25,4 10,0 25,9 37 20 67 36 NNW 1009,8 19 0,0
03.08.2020 18:00:00 25,7 9,9 26,4 37 20 66 36 N 1009,7 23 0,0
03.08.2020 17:00:00 27,8 10,5 29,1 38 20 71 38 N 1009,3 12 0,0
03.08.2020 16:00:00 28,8 10,9 29,7 39 21 59 32 NNW 1009,2 14 0,0
03.08.2020 15:00:00 28,8 10,9 32,0 34 18 60 32 NNW 1009,4 18 0,0
03.08.2020 14:00:00 28,3 11,4 28,2 36 19 60 33 N 1009,9 22 0,0
03.08.2020 13:00:00 28,0 11,5 32,5 34 18 56 30 N 1010,2 20 0,0
03.08.2020 12:00:00 27,1 12,7 29,9 35 19 55 30 NNW 1010,4 36 0,0
03.08.2020 11:00:00 25,8 12,6 23,7 32 17 55 30 NNW 1010,8 46 0,0
03.08.2020 10:00:00 22,7 13,2 23,0 28 15 50 27 NNW 1011,0 38 0,0
03.08.2020 09:00:00 22,5 13,0 21,7 31 17 53 29 NNW 1011,3 53 0,0
03.08.2020 08:00:00 21,7 13,6 21,0 29 15 47 25 NNW 1010,9 43 0,0
03.08.2020 07:00:00 21,7 13,6 20,9 22 12 40 21 NNW 1011,1 60 0,0

tt = Température de l'air
td = dewpoint
tt 5cm = Température de l'air 5cm
ff = Vitesse du vent
fx = gusts
dd = Direction du vent
ppp = reduced air pressure
vv = visibility
rr = Quantités de précipitations

stations d'obs. à proximité